Starlink 1024

decayed
NORAD ID: 44729 Int'l Des: 2019-074 Owner: SPXS Country: US Constellation: starlink
LEOCIRCULAR
Group

About Starlink 1024

Description loading...

Altitude History

Altitude vs Time

uPlot chart will show altitude changes over time

Two-Line Element Set

1 44729U 19074S 24088.19196538 .62906440 12352-4 25620-2 0 9996
2 44729 52.9937 345.0737 0009894 227.6375 273.3459 16.42960980243753
Epoch: Mar 28, 2024 • Age: 15015 hours

Current Status

Position data unavailable
Launch Date Nov 11, 2019
Age 6 years
Decay Date Mar 28, 2024
Type internet

Technical Details

Classification Payload
Mass 260.00 kg
Dry Mass 248.00 kg
Total Mass 260.00 kg
Length 0.20 m
Diameter 2.80 m
Span 9.00 m
Shape Box + pan
Manufacturer SPXS
Bus Type Starlink
Phase Status Reentered
Owner/State SPXS/US

Large Constellations

Loading constellations...